sat.trackr.live / text

‹ back to catalog

STARLINK-5981

NORAD 56325 · 2023-058J

PAYLOAD ACTIVE UNKNOWN

§ Identity

Operator
Country
US
Launch date
2023-04-27
Launch site
AFWTR
Launch vehicle
Mass (kg)
RCS (m²)

Purposes: comms

External: N2YO · Heavens-Above · Gunter

§ Orbital elements

Epoch: 2026-05-24T23:45:34.146720Z

Period
95.64 min
Inclination
97.4453°
Eccentricity
0.0002525
Mean motion
15.05648188 rev/d
Perigee alt
547.8 km
Apogee alt
551.3 km
Semi-major
6,927.7 km
B*
-1.0661e-5
RAAN
144.9314°
Arg perigee
90.8339°
Mean anomaly
269.3177°
Rev number
16,960

§ Raw data

STARLINK-59811 56325U 23058J   26144.98997855 -.00000212  00000+0 -10661-4 0  99902 56325  97.4453 144.9314 0002525  90.8339 269.3177 15.05648188169600

JSON: /api/v1/satellites/56325 · /tle

For live sub-satellite position, see the globe view (requires WebGL).

§ Visibility from observer

Set your observer location to see the next 7 days of passes ≥ 10°. The values pass through the URL so the page stays shareable.

No JS? Fill the form by hand. The geolocation button needs JavaScript.